Terminal Aerodrome Forecast
Issued by NWS St Louis, MO

Home | Current Version | Previous Version | Text Only | Print | Product List | Glossary On
Versions: 1 2 3 4 5 6 7 8 9 10 11 12 13 14 15 16 17 18 19 20 21 22 23 24 25 26 27 28 29 30 31
000
FTUS43 KLSX 282100 AAA
TAFSTL
TAF AMD
KSTL 282109Z 2821/2924 15015G25KT P6SM BKN250
     FM290000 16014G20KT P6SM BKN150
     FM290300 18013KT P6SM BKN150 WS018/23050KT
     FM290800 24015G21KT P6SM SCT060 BKN150
     FM291200 29018G28KT P6SM OVC020=

USA.gov is the U.S. government's official web portal to all federal, state and local government web resources and services.